Weather History for KTCM - January, 2013

Change the Weather History Date:

Saturday, January 12, 2013

  Actual Average Record
Temperature  
Mean Temperature 28 °F -  
Max Temperature 37 °F 43 °F 55 °F (1983)
Min Temperature 18 °F 32 °F 14 °F (2007)
Degree Days  
Heating Degree Days 37    
Moisture  
Dew Point 22 °F    
Average Humidity 89    
Maximum Humidity 100    
Minimum Humidity 64    
Precipitation  
Precipitation 0.00 in - - ()
Sea Level Pressure  
Sea Level Pressure 30.38 in    
Wind  
Wind Speed 2 mph (East)    
Max Wind Speed 6 mph    
Max Gust Speed -    
Visibility 8 miles    
Events      
Averages and records for this station are not official NWS values.
T = Trace of Precipitation, MM = Missing Value Source: NWS Daily Summary

Daily Weather History Graph

Daily Weather History Graph

Search for Another Location

Airport or City:

Trip Planner

Search our weather history database for the weather conditions in past years. The results will help you decide how hot, cold, wet, or windy it might be!

Date:

Astronomy

Jan. 12, 2013 Rise Set
Actual Time 7:53 AM PST 4:43 PM PST
Civil Twilight 7:18 AM PST 5:18 PM PST
Nautical Twilight 6:40 AM PST 5:56 PM PST
Astronomical Twilight 6:03 AM PST 6:33 PM PST
Moon 8:08 AM PST (1/12) 6:28 PM PST (1/12)
Length of Visible Light 9h 59m
Length of Day
8h 50m
New Moon, 2% of the Moon is Illuminated
Jan 12
New Moon
Jan 18
First Quarter
Jan 26
Full
Feb 3
Last Quarter
Feb 9
New

Hourly Weather History & Observations

Time (PST) Temp. Windchill Dew Point Humidity Pressure Visibility Wind Dir Wind Speed Gust Speed Precip Events Conditions
12:58 AM 22.6 °F - 22.3 °F 99% 30.34 in 10.0 mi Calm Calm - N/A   Clear
1:48 AM 21.2 °F - 21.2 °F 100% 30.32 in 2.0 mi Calm Calm - N/A   Clear
1:53 AM 21.2 °F - 21.2 °F 100% 30.32 in 1.2 mi SSE 2.3 mph - N/A   Clear
1:58 AM 21.0 °F - 20.1 °F 96% 30.35 in 1.2 mi SSE 1.2 mph - N/A   Clear
2:03 AM 21.2 °F - 21.2 °F 100% 30.32 in 1.5 mi SE 2.3 mph - N/A   Clear
2:08 AM 21.2 °F - 21.2 °F 100% 30.32 in 4.0 mi SE 1.2 mph - N/A   Clear
2:58 AM 21.0 °F - 19.9 °F 96% 30.35 in 10.0 mi SSE 1.2 mph - N/A   Clear
3:33 AM 19.4 °F - 19.4 °F 100% 30.32 in 1.5 mi East 2.3 mph - N/A   Clear
3:38 AM 21.2 °F - 19.4 °F 93% 30.32 in 1.2 mi East 2.3 mph - N/A   Clear
3:43 AM 19.4 °F - 19.4 °F 100% 30.32 in 4.0 mi East 1.2 mph - N/A   Clear
3:58 AM 19.0 °F - 17.8 °F 95% 30.35 in 9.0 mi East 1.2 mph - N/A   Clear
4:58 AM 19.6 °F - 18.5 °F 96% 30.36 in 6.0 mi Calm Calm - N/A   Clear
5:58 AM 19.4 °F - 18.5 °F 96% 30.36 in 10.0 mi Calm Calm - N/A   Clear
6:58 AM 20.8 °F - 20.1 °F 97% 30.37 in 9.0 mi South 2.3 mph - N/A   Clear
7:58 AM 19.9 °F - 19.0 °F 96% 30.38 in 10.0 mi ESE 2.3 mph - N/A   Clear
8:58 AM 23.0 °F - 22.6 °F 99% 30.40 in 10.0 mi ESE 2.3 mph - N/A   Partly Cloudy
9:58 AM 26.6 °F - 26.4 °F 99% 30.41 in 10.0 mi East 1.2 mph - N/A   Clear
10:58 AM 31.1 °F - 26.8 °F 84% 30.41 in 10.0 mi Calm Calm - N/A   Clear
11:58 AM 34.5 °F - 27.1 °F 74% 30.40 in 10.0 mi North 2.3 mph - N/A   Clear
12:38 PM 37.4 °F - 26.6 °F 65% 30.36 in 10.0 mi North 1.2 mph - N/A   Mostly Cloudy
12:58 PM 35.1 °F 30.1 °F 26.2 °F 70% 30.39 in 10.0 mi NNW 5.8 mph - N/A   Mostly Cloudy
1:03 PM 35.6 °F 30.7 °F 26.6 °F 70% 30.36 in 10.0 mi North 5.8 mph - N/A   Scattered Clouds
1:58 PM 36.7 °F 32.9 °F 26.1 °F 65% 30.40 in 10.0 mi NNW 4.6 mph - N/A   Partly Cloudy
2:58 PM 36.9 °F 33.1 °F 25.7 °F 64% 30.40 in 10.0 mi North 4.6 mph - N/A   Partly Cloudy
3:58 PM 35.8 °F 31.9 °F 24.8 °F 64% 30.42 in 10.0 mi North 4.6 mph - N/A   Clear
4:58 PM 31.8 °F 26.2 °F 23.9 °F 73% 30.42 in 10.0 mi NNW 5.8 mph - N/A   Clear
5:58 PM 30.6 °F 24.7 °F 23.5 °F 75% 30.41 in 10.0 mi NNW 5.8 mph - N/A   Clear
6:58 PM 24.4 °F - 22.5 °F 92% 30.43 in 10.0 mi ESE 2.3 mph - N/A   Clear
7:58 PM 22.8 °F - 21.4 °F 94% 30.43 in 10.0 mi SSE 2.3 mph - N/A   Clear
8:58 PM 22.3 °F - 21.7 °F 98% 30.44 in 10.0 mi Calm Calm - N/A   Clear
9:58 PM 23.2 °F - 22.6 °F 98% 30.44 in 10.0 mi East 1.2 mph - N/A   Clear
10:58 PM 19.6 °F - 18.3 °F 95% 30.45 in 10.0 mi SE 2.3 mph - N/A   Clear
11:08 PM 21.2 °F - 19.4 °F 93% 30.43 in 2.5 mi Calm Calm - N/A   Clear
11:13 PM 21.2 °F - 21.2 °F 100% 30.42 in 4.0 mi SE 1.2 mph - N/A   Clear
11:58 PM 18.3 °F - 17.1 °F 95% 30.47 in 9.0 mi ESE 2.3 mph - N/A   Clear